Location: Brasstown Bald
(34.8693°N, 83.8103°W)
Time: 05:50:27
(UTC-04:00)

Amateur Radio Satellites - All Passes

Search period start: 22 August 2014 05:20
Search period end: 23 August 2014 05:20
Location: Brasstown Bald, 34.8693°N, 83.8103°W

Satellite Date Start Highest point End Downlink Frequencies (MHz)
Time Altitude Azimuth
ITAMSAT 1 22 Aug 05:21:39 05:23:59 13° 297° (WNW) 05:26:19 435.822 SSB
JAS-1B 22 Aug 05:37:13 05:42:24 21° 301° (WNW) 05:47:02 435.800 - 435.900 CW/SSB
OPAL 22 Aug 05:45:34 05:50:11 38° 260° (W) 05:54:53 ?
Uosat F 22 Aug 05:55:41 06:00:42 84° 104° (ESE) 06:05:42 435.120 FM
Sapphire 22 Aug 05:59:51 06:05:06 52° 248° (WSW) 06:10:20 437.095 MHz 1200 baud AX-25 AFSK
TMSAT-1 22 Aug 06:19:46 06:21:42 12° 297° (WNW) 06:23:39 436.925 FM
PCSat 22 Aug 06:31:07 06:35:27 25° 253° (WSW) 06:39:46 145.825 MHz
SO-50 22 Aug 06:48:43 06:53:10 85° 299° (WNW) 06:57:43 436.795 FM
Hamsat 22 Aug 06:56:09 07:00:02 31° 97° (E) 07:03:53 145.90 MHz
AO-7 22 Aug 07:09:46 07:17:20 41° 296° (WNW) 07:24:52 29.400 - 29.500 MHz
STRAND 1 22 Aug 07:13:20 07:18:14 48° 72° (ENE) 07:23:08 ?
JAS-2 22 Aug 07:49:59 07:55:11 86° 284° (WNW) 08:00:34 435.800 - 435.900 CW/SSB, 435.910 FM
UOSAT-12 22 Aug 08:01:36 08:05:48 37° 113° (ESE) 08:10:06 437.025 FM, 437.400 FM
SO-67 22 Aug 08:04:52 08:07:39 23° 96° (E) 08:10:26 435.3500 MHz FM
Hamsat 22 Aug 08:32:39 08:35:45 19° 291° (WNW) 08:38:50 145.90 MHz
STRAND 1 22 Aug 08:54:29 08:57:37 16° 266° (W) 09:00:46 ?
RS-15 22 Aug 09:32:59 09:43:50 59° 112° (ESE) 09:54:26 29.354 - 29.394 USB, Beacon 29.352 USB
HO-68 22 Aug 09:36:15 09:41:51 24° 95° (E) 09:47:24 435.675 MHz FM
SO-67 22 Aug 09:38:24 09:40:30 15° 290° (WNW) 09:42:35 435.3500 MHz FM
UOSAT-12 22 Aug 09:42:28 09:46:03 22° 310° (NW) 09:49:42 437.025 FM, 437.400 FM
Saudisat 1A 22 Aug 09:55:31 09:58:30 18° 49° (NE) 10:01:29 436.775 MHz
KITSAT 1 22 Aug 10:10:25 10:16:59 26° 48° (NE) 10:23:29 435.175 FM
UKube-1 22 Aug 11:11:19 11:15:40 75° 284° (WNW) 11:19:58 145.840 MHz, 145.915 MHz
HO-68 22 Aug 11:22:53 11:29:47 55° 290° (WNW) 11:36:42 435.675 MHz FM
FUNcube-1 22 Aug 11:27:18 11:31:24 35° 98° (E) 11:35:34 145.950 - 145.970 MHz USB
Oscar 11 22 Aug 11:27:24 11:31:47 81° 283° (WNW) 11:36:08 145.825 FM, Beacon 2401.500 USB
Saudisat 1A 22 Aug 11:34:06 11:38:17 44° 245° (WSW) 11:42:27 436.775 MHz
RS-15 22 Aug 11:46:36 11:56:35 38° 313° (NW) 12:06:31 29.354 - 29.394 USB, Beacon 29.352 USB
KITSAT 1 22 Aug 12:04:59 12:12:59 69° 247° (WSW) 12:20:56 435.175 FM
FUNcube-1 22 Aug 13:04:30 13:07:31 18° 291° (WNW) 13:10:34 145.950 - 145.970 MHz USB
Oscar 19 22 Aug 13:07:07 13:09:38 14° 64° (ENE) 13:12:09 437.125 CW, 437.150 USB
Uribyol 2 22 Aug 13:32:17 13:33:25 11° 62° (ENE) 13:34:33 436.500 FM
Oscar 16 22 Aug 13:38:08 13:42:32 30° 69° (ENE) 13:46:58 437.025 USB, Beacon 2401.1428
AO-27 22 Aug 13:44:39 13:47:23 15° 64° (ENE) 13:50:06 436.795 MHz FM
ISS 22 Aug 13:49:22 13:52:28 38° 133° (SE) 13:55:35 145.800 FM
RS-15 22 Aug 14:09:16 14:13:32 13° 345° (NNW) 14:17:50 29.354 - 29.394 USB, Beacon 29.352 USB
JAS-1B 22 Aug 14:22:35 14:31:45 45° 67° (ENE) 14:40:32 435.800 - 435.900 CW/SSB
Oscar 19 22 Aug 14:43:18 14:48:23 63° 259° (WSW) 14:53:31 437.125 CW, 437.150 USB
AO-Echo 22 Aug 14:44:37 14:49:45 62° 75° (ENE) 14:54:45 ?
ITAMSAT 1 22 Aug 14:54:37 14:59:46 72° 75° (ENE) 15:04:56 435.822 SSB
Gurwin Techsat 1B 22 Aug 14:57:43 15:02:21 32° 70° (ENE) 15:07:01 435.225 FM
Uribyol 2 22 Aug 15:07:00 15:12:10 81° 257° (WSW) 15:17:20 436.500 FM
Oscar 16 22 Aug 15:17:28 15:21:48 27° 264° (W) 15:26:10 437.025 USB, Beacon 2401.1428
AO-27 22 Aug 15:21:13 15:26:20 61° 259° (WSW) 15:31:29 436.795 MHz FM
SO-50 22 Aug 15:23:35 15:27:59 35° 55° (NE) 15:32:25 436.795 FM
ISS 22 Aug 15:26:46 15:29:18 20° 328° (NNW) 15:31:50 145.800 FM
TMSAT-1 22 Aug 15:54:33 15:59:51 83° 76° (ENE) 16:05:09 436.925 FM
PANSAT 22 Aug 16:05:30 16:07:40 15° 161° (SSE) 16:09:49 not established
MaSat-1 22 Aug 16:09:57 16:14:32 75° 294° (WNW) 16:19:38 437.345 MHz
AO-7 22 Aug 16:12:21 16:19:58 41° 64° (ENE) 16:27:33 29.400 - 29.500 MHz
JAS-1B 22 Aug 16:12:43 16:21:59 45° 262° (W) 16:31:04 435.800 - 435.900 CW/SSB
AO-Echo 22 Aug 16:26:34 16:28:48 13° 268° (W) 16:31:01 ?
RS-15 22 Aug 16:26:56 16:33:01 16° 24° (NNE) 16:39:09 29.354 - 29.394 USB, Beacon 29.352 USB
UOSAT-12 22 Aug 16:35:15 16:38:07 16° 47° (NE) 16:40:59 437.025 FM, 437.400 FM
Gurwin Techsat 1B 22 Aug 16:37:51 16:42:16 27° 264° (W) 16:46:43 435.225 FM
ITAMSAT 1 22 Aug 16:38:33 16:39:42 11° 269° (W) 16:40:51 435.822 SSB
SO-50 22 Aug 17:04:33 17:08:21 23° 249° (WSW) 17:12:09 436.795 FM
Uosat F 22 Aug 17:05:32 17:10:33 81° 76° (ENE) 17:15:35 435.120 FM
PANSAT 22 Aug 17:44:00 17:47:20 28° 173° (S) 17:50:39 not established
Hamsat 22 Aug 17:47:32 17:50:02 15° 68° (ENE) 17:52:32 145.90 MHz
OPAL 22 Aug 17:58:11 18:03:24 74° 104° (ESE) 18:08:36 ?
JAS-2 22 Aug 17:58:41 18:04:19 29° 69° (ENE) 18:09:25 435.800 - 435.900 CW/SSB, 435.910 FM
AO-7 22 Aug 18:04:56 18:12:37 40° 260° (W) 18:20:20 29.400 - 29.500 MHz
UOSAT-12 22 Aug 18:14:01 18:18:39 59° 244° (WSW) 18:23:12 437.025 FM, 437.400 FM
RS-15 22 Aug 18:38:08 18:48:53 51° 53° (NE) 18:59:59 29.354 - 29.394 USB, Beacon 29.352 USB
Sapphire 22 Aug 18:55:29 19:00:14 33° 108° (ESE) 19:05:01 437.095 MHz 1200 baud AX-25 AFSK
Hamsat 22 Aug 19:21:40 19:25:37 38° 262° (W) 19:29:39 145.90 MHz
PANSAT 22 Aug 19:23:46 19:27:08 29° 186° (S) 19:30:29 not established
PCSat 22 Aug 19:25:13 19:30:34 69° 113° (ESE) 19:35:57 145.825 MHz
STRAND 1 22 Aug 19:28:05 19:31:56 21° 95° (E) 19:35:46 ?
OPAL 22 Aug 19:39:27 19:41:37 13° 299° (WNW) 19:43:47 ?
JAS-2 22 Aug 19:42:50 19:49:12 40° 261° (W) 19:54:55 435.800 - 435.900 CW/SSB, 435.910 FM
HO-68 22 Aug 20:04:24 20:07:30 13° 56° (NE) 20:10:36 435.675 MHz FM
SO-67 22 Aug 20:06:45 20:10:12 81° 258° (WSW) 20:13:41 435.3500 MHz FM
ISS 22 Aug 20:21:32 20:23:32 15° 29° (NNE) 20:25:31 145.800 FM
Sapphire 22 Aug 20:38:55 20:43:36 30° 304° (NW) 20:48:19 437.095 MHz 1200 baud AX-25 AFSK
RS-15 22 Aug 20:50:49 21:00:58 43° 252° (WSW) 21:11:33 29.354 - 29.394 USB, Beacon 29.352 USB
PANSAT 22 Aug 21:04:25 21:06:49 16° 198° (SSW) 21:09:13 not established
STRAND 1 22 Aug 21:06:31 21:11:11 37° 289° (WNW) 21:15:49 ?
PCSat 22 Aug 21:11:14 21:14:29 16° 311° (NW) 21:17:45 145.825 MHz
HO-68 22 Aug 21:46:57 21:54:05 81° 73° (ENE) 22:01:15 435.675 MHz FM
ISS 22 Aug 21:57:15 22:00:33 66° 225° (SW) 22:03:51 145.800 FM
UKube-1 22 Aug 22:03:22 22:07:39 61° 75° (ENE) 22:11:57 145.840 MHz, 145.915 MHz
Oscar 11 22 Aug 22:19:02 22:23:12 50° 74° (ENE) 22:27:24 145.825 FM, Beacon 2401.500 USB
FUNcube-1 22 Aug 22:21:48 22:24:38 18° 69° (ENE) 22:27:29 145.950 - 145.970 MHz USB
HO-68 22 Aug 23:38:42 23:42:25 15° 268° (W) 23:46:10 435.675 MHz FM
FUNcube-1 22 Aug 23:57:11 00:00:48 29° 263° (W) 00:04:27 145.950 - 145.970 MHz USB
Oscar 11 22 Aug 23:58:22 23:59:38 11° 268° (W) 00:00:54 145.825 FM, Beacon 2401.500 USB
MaSat-1 23 Aug 00:33:14 00:35:18 13° 50° (NE) 00:37:17 437.345 MHz
KITSAT 1 23 Aug 00:35:55 00:42:09 25° 104° (ESE) 00:48:22 435.175 FM
Saudisat 1A 23 Aug 01:36:58 01:41:22 77° 300° (WNW) 01:45:48 436.775 MHz
Oscar 16 23 Aug 01:54:36 01:57:06 14° 92° (E) 01:59:36 437.025 USB, Beacon 2401.1428
MaSat-1 23 Aug 02:08:23 02:13:01 63° 250° (WSW) 02:17:01 437.345 MHz
KITSAT 1 23 Aug 02:28:55 02:36:53 62° 301° (WNW) 02:44:55 435.175 FM
AO-Echo 23 Aug 02:56:08 02:59:55 24° 96° (E) 03:03:40 ?
Oscar 19 23 Aug 02:58:17 03:03:27 61° 101° (E) 03:08:34 437.125 CW, 437.150 USB
ITAMSAT 1 23 Aug 03:11:17 03:15:57 33° 98° (E) 03:20:35 435.822 SSB
Gurwin Techsat 1B 23 Aug 03:18:13 03:21:31 17° 93° (E) 03:24:48 435.225 FM
Uribyol 2 23 Aug 03:23:16 03:28:16 48° 100° (E) 03:33:15 436.500 FM
Oscar 16 23 Aug 03:31:40 03:36:47 60° 286° (WNW) 03:41:52 437.025 USB, Beacon 2401.1428
AO-27 23 Aug 03:37:37 03:42:46 64° 102° (ESE) 03:47:53 436.795 MHz FM
Sapphire 23 Aug 03:47:41 03:50:44 15° 49° (NE) 03:53:47 437.095 MHz 1200 baud AX-25 AFSK
JAS-1B 23 Aug 04:04:25 04:11:39 81° 103° (ESE) 04:17:44 435.800 - 435.900 CW/SSB
TMSAT-1 23 Aug 04:14:03 04:19:05 44° 99° (E) 04:24:06 436.925 FM
PCSat 23 Aug 04:16:59 04:21:37 28° 55° (NE) 04:26:12 145.825 MHz
AO-7 23 Aug 04:20:17 04:24:04 14° 91° (E) 04:27:51 29.400 - 29.500 MHz
KITSAT 1 23 Aug 04:30:04 04:34:03 14° 323° (NW) 04:38:02 435.175 FM
AO-Echo 23 Aug 04:34:39 04:38:39 28° 290° (WNW) 04:42:36 ?
Oscar 19 23 Aug 04:39:30 04:42:13 14° 296° (WNW) 04:44:55 437.125 CW, 437.150 USB
ITAMSAT 1 23 Aug 04:51:05 04:55:14 25° 292° (WNW) 04:59:23 435.822 SSB
Gurwin Techsat 1B 23 Aug 04:56:36 05:01:43 51° 287° (WNW) 05:06:49 435.225 FM
Uribyol 2 23 Aug 05:03:54 05:07:19 18° 294° (WNW) 05:10:45 436.500 FM
OPAL 23 Aug 05:09:56 05:14:56 89° 73° (ENE) 05:20:01 ?
